FREGAT R/B, 41551

Orbit data source: Space-Track

FREGAT R/B, 41551 is space debris originally from a launch on Tue, 24 May 2016 UTC launched from the French Guiana (FRGUI). Debris objects in space refer to the collection of defunct objects orbiting the Earth. Examples of debris include non-operational satellites, rocket bodies, and fragments generated from explosions, collisions, or faulty payload assembly.

Loading next visibility...
Identifier
41551, 2016-030C
Orbit
Active
Last TLE update
21 hours ago
Origin
Manufacturer
Lavochkin
Mission
Spacecraft
Bus & Motor
FREGAT, Unknown motor
Mass
1,050 kg wet, 1,050 kg dry
Launch date (UTC)
2016-05-24 (9 years ago)
Launch vehicle
Unknown
Launch site
French Guiana (FRGUI)
Object type
Payload
Rocket body
Debris
Shape & HBR
Irr, 3.3 m
Radar Cross Section
11.055 m², Large (>1 m²)

Expand to show TLE details & history

TLE from 21 hours ago
0 FREGAT R/B
1 41551U 16030C   25185.85857595  .00000049  00000-0  00000+0 0  9991
2 41551  55.1029 234.3009 0022442 232.0663 127.8161  1.67598323 55771
Epoch: 2025-07-04T20:36Z
TLE epoch observation values (Epoch: 2025-07-04T20:36:20.962Z)
Latitude
-0.00003°
Longitude
2.12243°
Altitude
23,601.375 km
Speed
3.644 km/s
True Right ascension
15h 37m 15s
True Declination
0° 00' 00"
Sunlit
Object was in daylight at epoch
Visualization orbit readout
Latitude
18.98362°
Longitude
168.23366°
Altitude
23,542.729 km
Speed
3.651 km/s
Apparent Right ascension
02h 14m 42s
Apparent Declination
12° 58' 59"
Sunlit
Object is in daylight
Visualization observer readout
Local Sidereal Time
05:05:43
Azimuth
246.56° WSW
Elevation
43.863°
Doppler factor
1
Orbital elements
Apogee altitude
23,627.005 km
Perigee altitude
23,492.632 km
Semi-major axis
29,937.955 km
Eccentricity
0.00224
Inclination
55.1029°
RAAN
234.3009°
Arg. of periapsis
232.0663°
True anomaly
Unknown
Mean anomaly
127.8161°
Eccentric anomaly
Unknown
Mean motion
0.419 °/min
Orbital period
859.2 mins
BSTAR
0
Loading maneuver chart data...
Loading SW <> Apogee altitude chart data...
Loading historical data...
Loading historical data...
Loading historical data...
Loading historical data...
Loading historical data...
Loading historical data...
Loading historical data...
Other satellites on launch #30 in the year 2016 (2016-05-24 UTC)

FREGAT R/B Visibility forecast

Observer location: undefined°, undefined°

Span
Click to sort rows by Start time (UTC) header in descending order
Start Az.
Max El. time (UTC)
Max El. Az.
Max El.
End time (UTC)
End Az.
110 mins2025-07-05 17:10:23.770Z246.53° WSW2025-07-05 17:10:23.770Z246.53° WSW34.713°2025-07-05 19:00:23.770Z217.242° SW
337 mins2025-07-06 00:21:23.770Z142.092° SSE2025-07-06 03:06:23.770Z83.224° E37.976°2025-07-06 05:58:23.770Z47.79° ENE
|